Voltar ao catálogo

OPS 4682 DEB

AtivoPO
NORAD 17722·DEBRIS·🇺🇸 United States

Lançado Apr 3, 1965 de Vandenberg Space Force Base

Loading…

Próximas Passagens (próximas 24 horas)

TLE

AtualizadoSource: Space-Track

Época: Sep 13, 2026, 18:39 UTC

1 17722U 65027W   26256.77746627  .00000514  00000-0  17083-2 0  9997
2 17722  90.2416 356.3137 0003194  62.4752  91.8148 12.98980741955856

Acompanhe OPS 4682 DEB em tempo real com AllMySat

Download on the App Store